Location: Eaton
(41.3139°N, 82.0207°W)
Time: 16:50:21
(UTC+00:00)

CZ-4B R/B - Pass Details

Date: 17 June 2021
Orbit: 702 x 803 km, 98.9° (Epoch: 01 August)

Event Time Altitude Azimuth Distance (km) Brightness Sun altitude
Rises 08:16:00 0° 19° (NNE) 3,323 8.2 -14.6°
Reaches altitude 10° 08:18:26 10° 25° (NNE) 2,387 7.3 -14.3°
Maximum altitude 08:23:33 49° 100° (E) 1,018 4.3 -13.7°
Drops below altitude 10° 08:28:34 10° 175° (S) 2,338 5.6 -13.1°
Enters shadow 08:29:07 - 177° (S) 2,547 5.8 -13.0°
